Hebron, NE

10:09 PM CDT on March 22, 2017 (GMT -0500)
Hebron Municipal

Weather History for KHJH - October, 2013

Change the Weather History Date:

Thursday, October 3, 2013

  Actual Average Record
Temperature  
Mean Temperature 72 °F -  
Max Temperature 81 °F 74 °F 93 °F (1954)
Min Temperature 62 °F 45 °F 31 °F (2010)
Cooling Degree Days 6    
Growing Degree Days 22 (Base 50)    
Moisture  
Dew Point 63 °F    
Average Humidity 77    
Maximum Humidity 93    
Minimum Humidity 58    
Precipitation  
Precipitation 2.63 in - - ()
Sea Level Pressure  
Sea Level Pressure 29.76 in    
Wind  
Wind Speed 11 mph (ESE)    
Max Wind Speed 24 mph    
Max Gust Speed 39 mph    
Visibility 9 miles    
Events Rain , Thunderstorm    
Averages and records for this station are not official NWS values.
T = Trace of Precipitation, MM = Missing Value Source: NWS Daily Summary

Daily Weather History Graph

Daily Weather History Graph

Search for Another Location

Airport or City:

Trip Planner

Search our weather history database for the weather conditions in past years. The results will help you decide how hot, cold, wet, or windy it might be!

Date:

Astronomy

Oct. 03, 2013 Rise Set
Actual Time 7:28 AM CDT 7:08 PM CDT
Civil Twilight 7:01 AM CDT 7:35 PM CDT
Nautical Twilight 6:30 AM CDT 8:07 PM CDT
Astronomical Twilight 5:58 AM CDT 8:38 PM CDT
Moon 6:03 AM CDT (10/3) 6:18 PM CDT (10/3)
Length of Visible Light 12h 34m
Length of Day
11h 39m
Waning Crescent, 2% of the Moon is Illuminated
Oct 3
Waning Crescent
Oct 4
New
Oct 11
First Quarter
Oct 18
Full
Oct 26
Last Quarter

Hourly Weather History & Observations

Time (CDT) Temp. Heat Index Dew Point Humidity Pressure Visibility Wind Dir Wind Speed Gust Speed Precip Events Conditions
12:15 AM 72.9 °F - 64.4 °F 75% 29.81 in 10.0 mi SSE 10.4 mph - N/A Rain Light Rain
12:35 AM 72.0 °F - 64.8 °F 78% 29.80 in 10.0 mi SSE 9.2 mph - N/A   Scattered Clouds
12:55 AM 72.1 °F - 65.1 °F 78% 29.81 in 7.0 mi WSW 6.9 mph - 0.05 in Rain , Thunderstorm Heavy Thunderstorms and Rain
1:15 AM 70.9 °F - 66.2 °F 85% 29.80 in 7.0 mi Calm Calm - 0.03 in Rain , Thunderstorm Light Thunderstorms and Rain
1:35 AM 67.5 °F - 62.2 °F 83% 29.82 in 10.0 mi NNE 17.3 mph 21.9 mph 0.03 in Rain , Thunderstorm Light Thunderstorms and Rain
1:55 AM 64.8 °F - 59.7 °F 84% 29.85 in 10.0 mi NE 24.2 mph 29.9 mph 0.04 in Rain , Thunderstorm Rain
2:15 AM 64.0 °F - 59.5 °F 85% 29.81 in 5.0 mi North 18.4 mph 39.1 mph 0.04 in Rain , Thunderstorm Heavy Thunderstorms and Rain
2:35 AM 63.0 °F - 59.9 °F 90% 29.86 in 0.8 mi ENE 10.4 mph - 0.74 in Rain , Thunderstorm Heavy Thunderstorms and Rain
2:55 AM 62.6 °F - 59.9 °F 91% 29.85 in 1.2 mi NE 12.7 mph - 1.35 in Rain , Thunderstorm Heavy Thunderstorms and Rain
3:15 AM 62.6 °F - 59.9 °F 91% 29.85 in 3.0 mi East 12.7 mph - 0.16 in Rain , Thunderstorm Heavy Thunderstorms and Rain
3:35 AM 62.6 °F - 59.9 °F 91% 29.83 in 4.0 mi East 12.7 mph 18.4 mph 0.31 in Rain , Thunderstorm Heavy Thunderstorms and Rain
3:55 AM 62.6 °F - 60.1 °F 91% 29.82 in 3.0 mi ENE 13.8 mph - 0.46 in Rain , Thunderstorm Rain
4:15 AM 62.6 °F - 59.9 °F 91% 29.82 in 5.0 mi East 15.0 mph 19.6 mph 0.06 in Rain , Thunderstorm Rain
4:35 AM 62.4 °F - 59.9 °F 91% 29.79 in 7.0 mi East 13.8 mph 19.6 mph 0.11 in Rain , Thunderstorm Light Thunderstorms and Rain
4:55 AM 62.6 °F - 59.9 °F 91% 29.80 in 10.0 mi East 11.5 mph - 0.12 in Rain , Thunderstorm Light Thunderstorms and Rain
5:15 AM 62.6 °F - 59.9 °F 91% 29.83 in 7.0 mi ENE 4.6 mph - 0.03 in Rain , Thunderstorm Thunderstorms and Rain
5:35 AM 62.2 °F - 59.9 °F 92% 29.84 in 2.5 mi ENE 3.5 mph - 0.34 in Rain , Thunderstorm Heavy Thunderstorms and Rain
5:55 AM 62.1 °F - 59.9 °F 93% 29.83 in 5.0 mi SE 6.9 mph 16.1 mph 0.52 in Rain , Thunderstorm Heavy Thunderstorms and Rain
6:15 AM 62.6 °F - 59.9 °F 91% 29.83 in 5.0 mi SE 12.7 mph - 0.07 in Rain , Thunderstorm Thunderstorms and Rain
6:35 AM 62.6 °F - 59.9 °F 91% 29.83 in 10.0 mi SE 9.2 mph - 0.08 in Rain , Thunderstorm Light Thunderstorms and Rain
6:55 AM 62.6 °F - 59.9 °F 91% 29.84 in 10.0 mi ESE 6.9 mph - 0.08 in Thunderstorm Thunderstorm
7:15 AM 62.6 °F - 59.9 °F 91% 29.82 in 10.0 mi SE 10.4 mph - 0.01 in   Overcast
7:35 AM 62.6 °F - 59.9 °F 91% 29.81 in 10.0 mi ESE 11.5 mph - 0.01 in   Overcast
7:55 AM 62.6 °F - 59.9 °F 91% 29.80 in 10.0 mi ESE 6.9 mph - 0.01 in   Overcast
8:15 AM 62.8 °F - 59.9 °F 90% 29.80 in 10.0 mi ESE 5.8 mph - N/A   Scattered Clouds
8:35 AM 63.0 °F - 59.9 °F 90% 29.80 in 10.0 mi ESE 6.9 mph - N/A   Scattered Clouds
8:55 AM 64.0 °F - 60.1 °F 87% 29.81 in 10.0 mi SE 9.2 mph - N/A   Mostly Cloudy
9:15 AM 65.1 °F - 60.1 °F 84% 29.81 in 10.0 mi SE 13.8 mph - N/A   Mostly Cloudy
9:35 AM 66.4 °F - 60.6 °F 82% 29.81 in 10.0 mi SE 13.8 mph 18.4 mph N/A   Scattered Clouds
9:55 AM 67.3 °F - 60.6 °F 79% 29.81 in 10.0 mi SE 12.7 mph - N/A   Scattered Clouds
10:15 AM 68.4 °F - 61.0 °F 77% 29.80 in 10.0 mi SE 15.0 mph 23.0 mph N/A   Scattered Clouds
10:35 AM 69.3 °F - 61.7 °F 77% 29.79 in 10.0 mi SE 19.6 mph 25.3 mph N/A   Clear
10:55 AM 70.3 °F - 62.4 °F 76% 29.78 in 10.0 mi SE 18.4 mph 26.5 mph N/A   Clear
11:15 AM 70.9 °F - 62.2 °F 74% 29.78 in 10.0 mi SE 19.6 mph 26.5 mph N/A   Clear
11:35 AM 72.3 °F - 63.3 °F 73% 29.78 in 10.0 mi SSE 18.4 mph 24.2 mph N/A   Clear
11:55 AM 73.6 °F - 63.5 °F 71% 29.77 in 10.0 mi SE 18.4 mph 25.3 mph N/A   Clear
12:15 PM 74.5 °F - 63.9 °F 69% 29.76 in 10.0 mi SSE 18.4 mph 24.2 mph N/A   Clear
12:35 PM 75.4 °F - 64.4 °F 69% 29.75 in 10.0 mi SSE 13.8 mph 23.0 mph N/A   Scattered Clouds
12:55 PM 75.7 °F - 64.4 °F 68% 29.74 in 10.0 mi SSE 16.1 mph 23.0 mph N/A   Scattered Clouds
1:15 PM 77.0 °F - 64.4 °F 65% 29.73 in 10.0 mi SSE 17.3 mph 24.2 mph N/A   Mostly Cloudy
1:35 PM 76.5 °F - 64.8 °F 67% 29.71 in 10.0 mi SE 12.7 mph 19.6 mph N/A   Mostly Cloudy
1:55 PM 78.8 °F - 65.3 °F 63% 29.71 in 10.0 mi South 17.3 mph 24.2 mph N/A   Mostly Cloudy
2:15 PM 78.1 °F - 65.1 °F 64% 29.71 in 10.0 mi SSE 15.0 mph - N/A   Mostly Cloudy
2:35 PM 79.2 °F - 64.8 °F 61% 29.71 in 10.0 mi South 20.7 mph 24.2 mph N/A   Mostly Cloudy
2:55 PM 78.4 °F - 64.6 °F 62% 29.71 in 10.0 mi South 13.8 mph 20.7 mph N/A   Mostly Cloudy
3:15 PM 78.3 °F - 64.4 °F 62% 29.72 in 10.0 mi South 11.5 mph - N/A   Overcast
3:35 PM 79.0 °F - 64.9 °F 62% 29.71 in 10.0 mi South 8.1 mph - N/A   Mostly Cloudy
3:55 PM 79.9 °F - 65.7 °F 62% 29.71 in 10.0 mi South 8.1 mph - N/A   Mostly Cloudy
4:15 PM 80.4 °F 82.3 °F 65.5 °F 60% 29.71 in 10.0 mi SE 5.8 mph - N/A   Scattered Clouds
4:35 PM 80.8 °F 82.8 °F 65.7 °F 60% 29.70 in 10.0 mi SSE 6.9 mph - N/A   Scattered Clouds
4:55 PM 81.5 °F 83.4 °F 65.7 °F 58% 29.69 in 10.0 mi ESE 5.8 mph - N/A   Scattered Clouds
5:15 PM 81.9 °F 83.9 °F 65.8 °F 58% 29.69 in 10.0 mi East 8.1 mph - N/A   Mostly Cloudy
5:35 PM 80.4 °F 82.7 °F 66.6 °F 63% 29.69 in 10.0 mi ENE 6.9 mph - N/A   Overcast
5:55 PM 80.2 °F 82.5 °F 66.4 °F 63% 29.69 in 10.0 mi ENE 9.2 mph - N/A   Overcast
6:15 PM 79.2 °F - 66.7 °F 66% 29.69 in 10.0 mi NE 11.5 mph - N/A   Mostly Cloudy
6:35 PM 77.7 °F - 66.6 °F 68% 29.68 in 10.0 mi ENE 11.5 mph - N/A   Scattered Clouds
6:55 PM 77.0 °F - 66.6 °F 70% 29.69 in 10.0 mi ENE 10.4 mph - N/A   Scattered Clouds
7:15 PM 76.3 °F - 66.6 °F 72% 29.69 in 10.0 mi ENE 9.2 mph - N/A   Scattered Clouds
7:35 PM 75.7 °F - 66.6 °F 73% 29.69 in 10.0 mi ENE 10.4 mph - N/A   Scattered Clouds
7:55 PM 75.4 °F - 66.4 °F 73% 29.69 in 10.0 mi ENE 13.8 mph - N/A   Mostly Cloudy
8:15 PM 75.6 °F - 66.2 °F 73% 29.69 in 10.0 mi East 15.0 mph - N/A   Mostly Cloudy
8:35 PM 75.2 °F - 66.2 °F 73% 29.68 in 10.0 mi East 12.7 mph 18.4 mph N/A   Mostly Cloudy
8:55 PM 74.7 °F - 66.4 °F 75% 29.67 in 10.0 mi ESE 6.9 mph - N/A Thunderstorm Thunderstorm
9:15 PM 74.5 °F - 66.7 °F 77% 29.67 in 10.0 mi Calm Calm - N/A Thunderstorm Overcast
9:35 PM 73.9 °F - 67.1 °F 79% 29.67 in 10.0 mi East 5.8 mph - N/A Thunderstorm Mostly Cloudy
9:55 PM 73.6 °F - 66.9 °F 80% 29.66 in 10.0 mi SE 8.1 mph - N/A Thunderstorm Thunderstorm
10:15 PM 73.0 °F - 67.1 °F 82% 29.69 in 10.0 mi North 6.9 mph - N/A Thunderstorm Clear
10:35 PM 72.0 °F - 65.5 °F 80% 29.69 in 10.0 mi East 4.6 mph - N/A   Clear
11:35 PM 68.4 °F - 60.8 °F 77% 29.71 in 10.0 mi ESE 6.9 mph - N/A   Clear
11:55 PM 68.5 °F - 61.2 °F 77% 29.71 in 10.0 mi East 5.8 mph - N/A   Clear